Location: Newark
(29.9790°N, 31.1340°E)
Time: 01:12:39
(UTC+00:00)

A-11 Canister half - Pass Details

Date: 04 February 2020
Orbit: 1524 x 1684 km, 47.3° (Epoch: 26 February)

Event Time Altitude Azimuth Distance (km) Brightness Sun altitude
Rises 18:59:04 0° 310° (NW) 4,719 12.1 -44.5°
Reaches altitude 10° 19:02:07 10° 312° (NW) 3,752 11.4 -45.1°
Enters shadow 19:07:29 39° 321° (NW) 2,213 9.9 -46.3°
